Location: Izdebnik
(49.8699°N, 19.7619°E)
Time: 07:18:10
(UTC+01:00)

ISS - Pass Details

Date: 26 January 2019
Orbit: 403 x 411 km, 51.6° (Epoch: 21 February)

Event Time Altitude Azimuth Distance (km) Brightness Sun altitude
Rises 17:35:51 0° 225° (SW) 2,324 1.2 -11.4°
Reaches altitude 10° 17:38:01 10° 217° (SW) 1,469 -0.2 -11.7°
Maximum altitude 17:41:04 36° 149° (SSE) 674 -2.9 -12.2°
Enters shadow 17:42:46 21° 95° (E) 996 -2.4 -12.5°
